• In Hungary
  • List of Countries
  • For 7 days
  • Water Temperature
  • Satellite Maps
  • Weather Map
  • News
  • Weather Widgets
  • user-avatar
    Login

    Hourly Weather Skowarcz

    Today, 23 July, Monday

    Time Temperature Precipitation Wind Pressure Humidity
    00:00 +18°C° 0 mm 1 mps 758 mmHg 81%
    01:00 +18°C° 0 mm 1 mps 758 mmHg 80%
    02:00 +18°C° 0 mm 1 mps 758 mmHg 79%
    03:00 +18°C° 0 mm 1 mps 758 mmHg 78%
    04:00 +18°C° 0 mm 1 mps 758 mmHg 77%
    05:00 +19°C° 0 mm 1 mps 758 mmHg 72%
    06:00 +21°C° 0 mm 1 mps 758 mmHg 67%
    07:00 +23°C° 0 mm 2 mps 758 mmHg 62%
    08:00 +25°C° 0 mm 2 mps 758 mmHg 57%
    09:00 +26°C° 0 mm 2 mps 758 mmHg 52%
    10:00 +28°C° 0 mm 2 mps 758 mmHg 47%
    11:00 +28°C° 0 mm 2 mps 758 mmHg 46%
    12:00 +28°C° 0 mm 2 mps 758 mmHg 45%
    13:00 +29°C° 0 mm 2 mps 758 mmHg 45%
    14:00 +28°C° 0 mm 2 mps 758 mmHg 47%
    15:00 +28°C° 0 mm 2 mps 758 mmHg 50%
    16:00 +28°C° 0 mm 3 mps 758 mmHg 53%
    17:00 +26°C° 0 mm 2 mps 758 mmHg 59%
    18:00 +25°C° 0 mm 2 mps 758 mmHg 66%
    19:00 +24°C° 0 mm 2 mps 758 mmHg 72%
    20:00 +23°C° 0 mm 2 mps 758 mmHg 76%
    21:00 +20°C° 0 mm 2 mps 759 mmHg 80%
    22:00 +19°C° 0 mm 2 mps 759 mmHg 84%
    23:00 +18°C° 0 mm 2 mps 759 mmHg 86%

    Tomorrow, 24 July, Tuesday

    Time Temperature Precipitation Wind Pressure Humidity
    00:00 +18°C° 0 mm 2 mps 759 mmHg 87%
    01:00 +18°C° 0 mm 2 mps 759 mmHg 89%
    02:00 +17°C° 0 mm 2 mps 759 mmHg 90%
    03:00 +17°C° 0 mm 2 mps 759 mmHg 91%
    04:00 +17°C° 0 mm 2 mps 759 mmHg 92%
    05:00 +18°C° 0 mm 2 mps 759 mmHg 87%
    06:00 +20°C° 0 mm 2 mps 759 mmHg 82%
    07:00 +23°C° 0 mm 2 mps 759 mmHg 77%
    08:00 +24°C° 0 mm 2 mps 759 mmHg 71%
    09:00 +25°C° 0 mm 2 mps 759 mmHg 65%
    10:00 +27°C° 0 mm 2 mps 759 mmHg 59%
    11:00 +27°C° 0 mm 2 mps 759 mmHg 59%
    12:00 +27°C° 0 mm 3 mps 758 mmHg 58%
    13:00 +28°C° 0 mm 3 mps 758 mmHg 58%
    14:00 +28°C° 0 mm 3 mps 758 mmHg 59%
    15:00 +27°C° 0 mm 3 mps 758 mmHg 60%
    16:00 +27°C° 0 mm 4 mps 758 mmHg 62%
    17:00 +26°C° 0 mm 3 mps 758 mmHg 68%
    18:00 +25°C° 0 mm 3 mps 758 mmHg 74%
    19:00 +24°C° 0 mm 3 mps 758 mmHg 79%
    20:00 +21°C° 0 mm 2 mps 758 mmHg 84%
    21:00 +20°C° 0 mm 2 mps 758 mmHg 89%
    22:00 +19°C° 0 mm 2 mps 758 mmHg 94%
    23:00 +19°C° 0 mm 2 mps 758 mmHg 94%

    Day after tomorrow, 25 July, Wednesday

    Time Temperature Precipitation Wind Pressure Humidity
    00:00 +18°C° 0 mm 2 mps 758 mmHg 95%
    01:00 +18°C° 0 mm 2 mps 758 mmHg 95%
    02:00 +18°C° 0 mm 2 mps 758 mmHg 95%
    03:00 +18°C° 0 mm 2 mps 758 mmHg 95%
    04:00 +18°C° 0 mm 2 mps 758 mmHg 95%
    05:00 +19°C° 0 mm 2 mps 758 mmHg 89%
    06:00 +21°C° 0 mm 2 mps 758 mmHg 83%
    07:00 +24°C° 0 mm 2 mps 758 mmHg 77%
    08:00 +25°C° 0 mm 3 mps 759 mmHg 71%
    09:00 +26°C° 0 mm 3 mps 759 mmHg 65%
    10:00 +27°C° 0 mm 3 mps 759 mmHg 59%
    11:00 +28°C° 0 mm 4 mps 759 mmHg 57%
    12:00 +28°C° 0 mm 4 mps 758 mmHg 56%
    13:00 +28°C° 0 mm 4 mps 758 mmHg 54%
    14:00 +28°C° 0 mm 5 mps 758 mmHg 56%
    15:00 +28°C° 0 mm 5 mps 758 mmHg 58%
    16:00 +27°C° 0 mm 5 mps 758 mmHg 60%
    17:00 +26°C° 0 mm 5 mps 758 mmHg 66%
    18:00 +25°C° 0 mm 4 mps 759 mmHg 73%
    19:00 +23°C° 0 mm 4 mps 759 mmHg 79%
    20:00 +22°C° 0 mm 4 mps 759 mmHg 84%
    21:00 +21°C° 0 mm 3 mps 759 mmHg 88%
    22:00 +20°C° 0 mm 3 mps 759 mmHg 93%
    23:00 +20°C° 0 mm 3 mps 759 mmHg 93%

    26 July, Thursday

    Time Temperature Precipitation Wind Pressure Humidity
    00:00 +20°C° 0 mm 3 mps 759 mmHg 94%
    01:00 +20°C° 0 mm 3 mps 759 mmHg 94%
    02:00 +19°C° 0 mm 3 mps 759 mmHg 94%
    03:00 +19°C° 0 mm 3 mps 759 mmHg 94%
    04:00 +19°C° 0 mm 3 mps 759 mmHg 94%
    05:00 +20°C° 0 mm 3 mps 760 mmHg 89%
    06:00 +22°C° 0 mm 3 mps 760 mmHg 83%
    07:00 +23°C° 0 mm 4 mps 760 mmHg 78%
    08:00 +26°C° 0 mm 4 mps 760 mmHg 71%
    09:00 +27°C° 0 mm 4 mps 760 mmHg 65%
    10:00 +28°C° 0 mm 5 mps 760 mmHg 59%
    11:00 +28°C° 0 mm 5 mps 760 mmHg 59%
    12:00 +29°C° 0 mm 5 mps 760 mmHg 58%
    13:00 +29°C° 0 mm 5 mps 760 mmHg 58%
    14:00 +29°C° 0 mm 5 mps 760 mmHg 60%
    15:00 +28°C° 0 mm 5 mps 760 mmHg 61%
    16:00 +28°C° 0 mm 5 mps 760 mmHg 63%
    17:00 +27°C° 0 mm 5 mps 760 mmHg 69%
    18:00 +26°C° 0 mm 5 mps 760 mmHg 74%
    19:00 +25°C° 0 mm 4 mps 760 mmHg 80%
    20:00 +23°C° 0 mm 4 mps 760 mmHg 84%
    21:00 +22°C° 0 mm 4 mps 760 mmHg 88%
    22:00 +21°C° 0 mm 3 mps 760 mmHg 92%
    23:00 +21°C° 0 mm 3 mps 760 mmHg 93%

    27 July, Friday

    Time Temperature Precipitation Wind Pressure Humidity
    00:00 +21°C° 0 mm 3 mps 760 mmHg 93%
    01:00 +21°C° 0 mm 3 mps 760 mmHg 94%
    02:00 +21°C° 0.1 mm 3 mps 760 mmHg 95%
    03:00 +21°C° 0.1 mm 3 mps 760 mmHg 96%
    04:00 +20°C° 0.1 mm 3 mps 760 mmHg 96%
    05:00 +22°C° 0.1 mm 3 mps 760 mmHg 92%
    06:00 +24°C° 0.1 mm 3 mps 760 mmHg 88%
    07:00 +25°C° 0.1 mm 4 mps 760 mmHg 84%
    08:00 +26°C° 0.2 mm 4 mps 760 mmHg 78%
    09:00 +28°C° 0.2 mm 4 mps 760 mmHg 73%
    10:00 +29°C° 0.2 mm 4 mps 760 mmHg 68%
    11:00 +30°C° 0.1 mm 4 mps 760 mmHg 64%
    12:00 +30°C° 0.1 mm 4 mps 760 mmHg 61%
    13:00 +32°C° 0.1 mm 4 mps 760 mmHg 58%
    14:00 +32°C° 0.1 mm 4 mps 759 mmHg 59%
    15:00 +32°C° 0.1 mm 4 mps 759 mmHg 60%
    16:00 +30°C° 0.1 mm 5 mps 759 mmHg 61%
    17:00 +29°C° 0 mm 4 mps 759 mmHg 67%
    18:00 +28°C° 0 mm 4 mps 759 mmHg 72%
    19:00 +26°C° 0 mm 4 mps 759 mmHg 78%
    20:00 +25°C° 0 mm 4 mps 759 mmHg 82%
    21:00 +24°C° 0 mm 3 mps 759 mmHg 87%
    22:00 +22°C° 0 mm 3 mps 759 mmHg 91%
    23:00 +23°C° 0 mm 2 mps 759 mmHg 91%

    28 July, Saturday

    Time Temperature Precipitation Wind Pressure Humidity
    00:00 +23°C° 0 mm 2 mps 759 mmHg 92%
    01:00 +21°C° 0 mm 2 mps 759 mmHg 92%
    02:00 +21°C° 0 mm 2 mps 758 mmHg 93%
    03:00 +21°C° 0 mm 2 mps 758 mmHg 93%
    04:00 +21°C° 0 mm 2 mps 758 mmHg 93%
    05:00 +23°C° 0 mm 2 mps 758 mmHg 87%
    06:00 +25°C° 0 mm 2 mps 758 mmHg 82%
    07:00 +26°C° 0 mm 2 mps 758 mmHg 77%
    08:00 +27°C° 0 mm 2 mps 758 mmHg 71%
    09:00 +28°C° 0 mm 2 mps 758 mmHg 66%
    10:00 +30°C° 0 mm 2 mps 757 mmHg 60%
    11:00 +30°C° 0 mm 2 mps 757 mmHg 58%
    12:00 +31°C° 0 mm 2 mps 757 mmHg 56%
    13:00 +31°C° 0 mm 2 mps 757 mmHg 54%
    14:00 +31°C° 0.1 mm 3 mps 757 mmHg 56%
    15:00 +31°C° 0.1 mm 3 mps 757 mmHg 57%
    16:00 +31°C° 0.1 mm 3 mps 757 mmHg 59%
    17:00 +29°C° 0.3 mm 3 mps 757 mmHg 66%
    18:00 +28°C° 0.3 mm 3 mps 757 mmHg 73%
    19:00 +26°C° 0.3 mm 2 mps 757 mmHg 81%
    20:00 +25°C° 0 mm 2 mps 757 mmHg 84%
    21:00 +25°C° 0 mm 2 mps 757 mmHg 88%
    22:00 +24°C° 0 mm 1 mps 758 mmHg 91%
    23:00 +23°C° 0 mm 1 mps 758 mmHg 92%
    Show more